Location: Decatur Area Astronomy Club
(40.0275°N, 88.7810°W)
Time: 16:48:26
(UTC-05:00)

Amateur Radio Satellites - All Passes

Search period start: 26 July 2016 16:18
Search period end: 27 July 2016 16:18
Location: Decatur Area Astronomy Club, 40.0275°N, 88.7810°W

Satellite Date Start Highest point End Downlink Frequencies (MHz)
Time Altitude Azimuth
GONETS M04 26 Jul 16:31:48 16:40:20 60° 282° (WNW) 16:48:57
DANDE 26 Jul 16:31:57 16:33:55 19° 265° (W) 16:36:02 436.750
BEESAT 26 Jul 16:36:46 16:40:13 20° 295° (WNW) 16:43:40 436.000
KKS-1 26 Jul 16:54:24 16:58:56 85° 103° (ESE) 17:03:25 437.445
SO-50 26 Jul 16:54:50 16:59:13 39° 51° (NE) 17:03:26 436.795
ITUPSAT 1 26 Jul 17:00:32 17:02:35 13° 299° (WNW) 17:04:39 437.325
Cubesat XI-IV 26 Jul 17:01:46 17:04:52 16° 61° (ENE) 17:07:59 437.490
PHONESAT 2.4 26 Jul 17:02:44 17:05:07 20° 152° (SSE) 17:07:30 2401.200-2431.200
CUBESAT XI-V 26 Jul 17:05:10 17:07:34 14° 91° (E) 17:09:58 437.345
HORYU 2 26 Jul 17:15:41 17:20:09 70° 258° (WSW) 17:24:39 437.375
MOZHAYETS 4 26 Jul 17:23:32 17:27:52 43° 288° (WNW) 17:32:10
CUTE-I 26 Jul 17:24:15 17:28:32 25° 65° (ENE) 17:32:51 437.470
BRITE-PL 26 Jul 17:27:48 17:31:29 32° 71° (ENE) 17:35:12 437.365/2234.400
STARS 26 Jul 17:35:14 17:39:40 69° 285° (WNW) 17:44:04 437.465
LilacSat-2 26 Jul 17:42:36 17:45:48 25° 70° (ENE) 17:49:04 437.200
Cosmos 2499 26 Jul 17:44:03 17:51:35 30° 290° (WNW) 17:59:02 435.465 / 435.565
NOAA 15 26 Jul 17:45:54 17:50:57 51° 71° (ENE) 17:56:02 137.62
AO-7 26 Jul 17:50:39 17:54:46 14° 271° (W) 17:58:56 29.400- 29.500
NOAA 18 26 Jul 17:53:04 17:58:20 47° 70° (ENE) 18:03:38 137.9125
BEESAT 3 26 Jul 18:07:20 18:10:18 21° 112° (ESE) 18:13:17 437.485
BEESAT 2 26 Jul 18:13:26 18:15:09 12° 109° (ESE) 18:16:51 435.950
HO-68 26 Jul 18:15:26 18:19:29 16° 54° (NE) 18:23:32 435.675
RS-15 26 Jul 18:22:16 18:32:21 31° 257° (WSW) 18:42:19 29.354- 29.394
DOVE 4 26 Jul 18:29:55 18:33:39 30° 69° (ENE) 18:37:34 437.250
GOMX 1 26 Jul 18:33:02 18:37:10 76° 77° (ENE) 18:41:29 467.674
SO-50 26 Jul 18:35:50 18:39:25 23° 249° (WSW) 18:42:54 436.795
GONETS M04 26 Jul 18:37:28 18:39:16 11° 304° (NW) 18:41:05
PHONESAT 2.4 26 Jul 18:38:16 18:41:21 74° 166° (SSE) 18:44:25 2401.200-2431.200
Cubesat XI-IV 26 Jul 18:38:57 18:44:19 71° 257° (WSW) 18:49:43 437.490
CUBESAT XI-V 26 Jul 18:40:46 18:45:16 55° 286° (WNW) 18:49:46 437.345
PCSat 26 Jul 18:41:59 18:46:02 22° 106° (ESE) 18:50:05 145.827
CANX-2 26 Jul 18:42:33 18:43:23 10° 63° (ENE) 18:44:13 2200.000
CINEMA 3 26 Jul 18:47:52 18:50:26 15° 63° (ENE) 18:53:04 145.822/145.860
CUTE 1.7 + AOD 2 26 Jul 18:54:57 18:56:52 13° 64° (ENE) 18:58:46 437.475
CUTE-I 26 Jul 19:03:15 19:08:19 42° 261° (W) 19:13:25 437.470
BRITE-PL 26 Jul 19:07:13 19:10:06 18° 267° (W) 19:13:00 437.365/2234.400
LilacSat-2 26 Jul 19:17:04 19:20:04 21° 266° (W) 19:23:05 437.200
NOAA 15 26 Jul 19:27:22 19:31:01 19° 267° (W) 19:34:40 137.62
SEEDS 26 Jul 19:33:38 19:37:01 24° 69° (ENE) 19:40:24 437.485
NOAA 18 26 Jul 19:34:54 19:39:11 23° 266° (W) 19:43:30 137.9125
UWE-3 26 Jul 19:40:07 19:41:16 11° 61° (ENE) 19:42:26 435.000/436.395/437.385
BEESAT 3 26 Jul 19:44:14 19:47:46 32° 309° (NW) 19:51:21 437.485
COMPASS 1 26 Jul 19:46:42 19:50:00 23° 69° (ENE) 19:53:18 437.405
BEESAT 2 26 Jul 19:48:38 19:52:30 53° 305° (NW) 19:56:24 435.950
STRAND 1 26 Jul 19:53:59 19:58:56 48° 100° (E) 20:03:50 437.568
CUBEBUG 2 26 Jul 19:57:58 20:01:39 24° 67° (ENE) 20:05:27 437.445
HO-68 26 Jul 19:58:55 20:06:06 82° 74° (ENE) 20:13:21 435.675
DOVE 4 26 Jul 20:08:04 20:11:24 22° 267° (W) 20:14:52 437.250
Cosmos 2491 26 Jul 20:09:18 20:13:09 14° 75° (ENE) 20:17:00 435.465 / 435.565
AIST 2 26 Jul 20:10:02 20:10:31 10° 107° (ESE) 20:11:00 435.215
CANX-2 26 Jul 20:14:22 20:18:38 72° 259° (WSW) 20:22:55 2200.000
PHONESAT 2.4 26 Jul 20:14:46 20:17:53 81° 7° (N) 20:20:58 2401.200-2431.200
AAUSAT CUBESAT 2 26 Jul 20:15:00 20:18:51 37° 72° (ENE) 20:22:41 437.432
CINEMA 3 26 Jul 20:22:38 20:27:01 56° 261° (W) 20:31:39 145.822/145.860
Oscar 11 26 Jul 20:22:45 20:25:52 19° 67° (ENE) 20:28:59 145.826/435.025
PCSat 26 Jul 20:23:46 20:29:02 51° 303° (WNW) 20:34:20 145.827
CUTE 1.7 + AOD 2 26 Jul 20:27:59 20:32:12 57° 260° (W) 20:36:26 437.475
ISS 26 Jul 20:29:56 20:31:19 12° 129° (SE) 20:32:41 145.825
YUBILEINY 26 Jul 20:38:33 20:47:03 48° 75° (ENE) 20:55:27 435.215
AUBIESAT-1 26 Jul 20:41:23 20:42:58 12° 56° (ENE) 20:44:33 437.475
DELFI C3 26 Jul 20:44:49 20:46:42 13° 65° (ENE) 20:48:35 145.870
O/OREOS (USA 219) 26 Jul 20:48:32 20:52:55 59° 109° (ESE) 20:57:20 437.305
Cosmos 2504 26 Jul 20:50:27 20:55:35 18° 62° (ENE) 21:00:30 435.465 / 435.565
HUMSAT D 26 Jul 21:01:50 21:02:55 11° 63° (ENE) 21:04:00 437.325/437.525
SEEDS 26 Jul 21:08:57 21:12:36 28° 264° (W) 21:16:14 437.485
UWE-3 26 Jul 21:12:26 21:16:59 81° 257° (WSW) 21:21:41 435.000/436.395/437.385
FUNcube-1 26 Jul 21:13:46 21:18:14 64° 75° (ENE) 21:22:46 145.935
ZACube-1 26 Jul 21:14:21 21:18:51 70° 75° (ENE) 21:23:26 437.345
COMPASS 1 26 Jul 21:21:48 21:25:25 28° 264° (W) 21:29:03 437.405
CUBEBUG 2 26 Jul 21:33:59 21:38:05 33° 264° (W) 21:42:20 437.445
STRAND 1 26 Jul 21:34:02 21:37:44 21° 296° (WNW) 21:41:26 437.568
AIST 2 26 Jul 21:44:19 21:48:24 68° 304° (WNW) 21:52:32 435.215
M-CUBED/EXP-1 PRIME 26 Jul 21:46:30 21:50:12 81° 69° (ENE) 21:54:16 437.505
HO-68 26 Jul 21:50:05 21:54:33 17° 270° (W) 21:59:03 435.675
PRISM 26 Jul 21:50:54 21:55:00 71° 284° (WNW) 21:59:04 437.425
PHONESAT 2.4 26 Jul 21:51:21 21:54:18 43° 201° (SSW) 21:57:15 2401.200-2431.200
AAUSAT CUBESAT 2 26 Jul 21:51:44 21:54:27 17° 267° (W) 21:57:11 437.432
Oscar 11 26 Jul 21:57:43 22:01:44 37° 263° (W) 22:05:47 145.826/435.025
Cosmos 2491 26 Jul 21:59:45 22:08:26 79° 94° (E) 22:17:09 435.465 / 435.565
ISS 26 Jul 22:04:06 22:07:20 68° 325° (NW) 22:10:35 145.825
AUBIESAT-1 26 Jul 22:13:07 22:16:49 58° 254° (WSW) 22:20:51 437.475
DELFI C3 26 Jul 22:17:18 22:21:08 47° 261° (W) 22:25:00 145.870
AO-85 26 Jul 22:29:53 22:33:54 32° 50° (NE) 22:37:35 145.980
O/OREOS (USA 219) 26 Jul 22:30:17 22:32:44 14° 306° (NW) 22:35:12 437.305
TIGRISAT 26 Jul 22:32:13 22:36:03 25° 94° (E) 22:39:46 435.000
AISAT 26 Jul 22:32:47 22:34:23 12° 62° (ENE) 22:36:01 437.250
HUMSAT D 26 Jul 22:33:38 22:37:56 71° 259° (WSW) 22:42:15 437.325/437.525
YUBILEINY 26 Jul 22:35:46 22:43:34 37° 275° (W) 22:51:19 435.215
Cosmos 2504 26 Jul 22:42:01 22:50:15 88° 264° (W) 22:57:49 435.465 / 435.565
UNISAT 6 26 Jul 22:48:02 22:52:24 39° 98° (E) 22:56:38 437.425
FUNcube-1 26 Jul 22:53:14 22:54:53 12° 271° (W) 22:56:32 145.935
ZACube-1 26 Jul 22:54:29 22:55:36 11° 271° (W) 22:56:42 437.345
ESTCUBE 1 26 Jul 23:02:45 23:06:56 40° 71° (ENE) 23:11:08 437.505/2401.250
QB50P2 26 Jul 23:19:45 23:21:45 13° 91° (E) 23:23:45 145.880/145.840
VELOX 1 26 Jul 23:21:32 23:25:33 36° 71° (ENE) 23:29:35 145.980
SPROUT 26 Jul 23:21:47 23:24:32 17° 66° (ENE) 23:27:19 437.525
POLYITAN 1 26 Jul 23:22:19 23:24:25 13° 91° (E) 23:26:30 437.675
CUBEBUG 1 26 Jul 23:23:52 23:27:57 44° 72° (ENE) 23:32:04 437.445
ANTELSAT 26 Jul 23:26:21 23:31:01 81° 282° (WNW) 23:35:33 437.575/2403.000
ISS 26 Jul 23:42:09 23:44:15 16° 343° (NNW) 23:46:20 145.825
50 SAT 26 Jul 23:47:06 23:50:46 77° 76° (ENE) 23:54:26 437.505
Cosmos 2491 26 Jul 23:59:54 00:06:15 22° 295° (WNW) 00:12:37 435.465 / 435.565
NANOSAT C BR1 27 Jul 00:04:21 00:08:20 37° 98° (E) 00:12:17 145.865
AISAT 27 Jul 00:05:56 00:10:17 67° 259° (WSW) 00:14:41 437.250
DX 1 27 Jul 00:07:08 00:11:28 88° 68° (ENE) 00:15:49 434.975-435.025
TIGRISAT 27 Jul 00:08:38 00:12:43 31° 291° (WNW) 00:16:42 435.000
DUCHIFAT 1 27 Jul 00:08:49 00:12:50 39° 98° (E) 00:16:49 145.980
AO-85 27 Jul 00:10:44 00:14:07 23° 249° (WSW) 00:17:19 145.980
TISAT 1 27 Jul 00:18:47 00:21:31 17° 66° (ENE) 00:24:15 437.305
UKube-1 27 Jul 00:21:38 00:25:55 81° 256° (WSW) 00:30:15 .
UNISAT 6 27 Jul 00:25:23 00:28:48 21° 294° (WNW) 00:32:10 437.425
BUGSAT 1 27 Jul 00:25:26 00:29:01 26° 96° (E) 00:32:36 437.445
QB50P1 27 Jul 00:26:18 00:30:36 72° 102° (ESE) 00:34:52 145.935-145.965
POPSAT HIP 1 27 Jul 00:32:42 00:37:02 84° 103° (ESE) 00:41:18 437.405
Cosmos 2504 27 Jul 00:38:10 00:42:10 15° 284° (WNW) 00:46:04 435.465 / 435.565
ESTCUBE 1 27 Jul 00:40:47 00:43:52 18° 267° (W) 00:46:59 437.505/2401.250
AIST 1 27 Jul 00:45:30 00:49:50 70° 81° (E) 00:54:10
GONETS M04 27 Jul 00:49:03 00:52:38 13° 58° (ENE) 00:56:13
QB50P2 27 Jul 00:53:40 00:57:51 51° 287° (WNW) 01:02:00 145.880/145.840
SPROUT 27 Jul 00:56:06 01:00:08 41° 262° (W) 01:04:13 437.525
POLYITAN 1 27 Jul 00:56:19 01:00:30 50° 287° (WNW) 01:04:38 437.675
VELOX 1 27 Jul 00:59:00 01:02:07 19° 266° (W) 01:05:15 145.980
CUBEBUG 1 27 Jul 01:01:54 01:04:27 15° 268° (W) 01:07:01 437.445
ISS 27 Jul 01:20:46 01:21:45 11° 3° (N) 01:22:45 145.825
JAS-2 27 Jul 01:33:57 01:39:16 90° 104° (ESE) 01:45:04 435.910
NANOSAT C BR1 27 Jul 01:40:47 01:43:47 19° 294° (WNW) 01:46:45 145.865
SWISSCUBE 27 Jul 01:42:48 01:47:01 32° 69° (ENE) 01:51:14 437.505
Cosmos 2499 27 Jul 01:43:45 01:48:55 19° 63° (ENE) 01:53:51 435.465 / 435.565
DUCHIFAT 1 27 Jul 01:45:20 01:48:13 18° 294° (WNW) 01:51:05 145.980
TISAT 1 27 Jul 01:52:53 01:56:50 40° 262° (W) 02:00:49 437.305
BUGSAT 1 27 Jul 02:00:46 02:04:18 26° 291° (WNW) 02:07:49 437.445
BEESAT 27 Jul 02:03:47 02:08:21 46° 71° (ENE) 02:12:56 436.000
QB50P1 27 Jul 02:04:52 02:05:45 11° 298° (WNW) 02:06:38 145.935-145.965
Gurwin Techsat 1B 27 Jul 02:08:44 02:13:01 24° 94° (E) 02:17:16 435.225
BEESAT 3 27 Jul 02:25:21 02:27:19 13° 42° (NE) 02:29:17 437.485
ITUPSAT 1 27 Jul 02:26:26 02:31:13 78° 75° (ENE) 02:36:02 437.325
ITAMSAT 1 27 Jul 02:28:09 02:28:44 10° 89° (E) 02:29:19 435.822/435.867
Oscar 19 27 Jul 02:29:51 02:35:04 87° 106° (ESE) 02:40:15 437.125/150
GONETS M04 27 Jul 02:42:32 02:51:20 68° 80° (E) 03:00:07
MOZHAYETS 4 27 Jul 02:49:06 02:52:01 17° 65° (ENE) 02:54:57
ISS 27 Jul 02:56:31 02:59:09 22° 24° (NNE) 03:01:45 145.825
SWISSCUBE 27 Jul 03:20:46 03:24:47 26° 264° (W) 03:28:48 437.505
JAS-2 27 Jul 03:22:04 03:23:43 11° 300° (WNW) 03:25:24 435.910
PCSat 27 Jul 03:29:46 03:33:32 19° 45° (NE) 03:37:17 145.827
Cosmos 2499 27 Jul 03:35:15 03:43:07 80° 265° (W) 03:50:23 435.465 / 435.565
CUSAT 1 27 Jul 03:36:48 03:40:49 37° 98° (E) 03:43:59 437.405
BEESAT 27 Jul 03:43:07 03:46:21 18° 267° (W) 03:49:36 436.000
Gurwin Techsat 1B 27 Jul 03:48:07 03:53:05 41° 290° (WNW) 03:58:01 435.225
KKS-1 27 Jul 03:51:30 03:55:55 71° 74° (ENE) 04:00:22 437.445
AO-7 27 Jul 03:55:16 04:02:50 37° 98° (E) 04:10:19 29.400- 29.500
DANDE 27 Jul 03:56:07 04:00:58 28° 96° (E) 04:04:50 436.750
BEESAT 3 27 Jul 04:01:29 04:05:27 69° 241° (WSW) 04:09:22 437.485
ITAMSAT 1 27 Jul 04:03:37 04:08:51 86° 284° (WNW) 04:14:01 435.822/435.867
BEESAT 2 27 Jul 04:07:03 04:11:03 70° 58° (ENE) 04:15:01 435.950
CUBESAT XI-V 27 Jul 04:08:28 04:10:47 14° 63° (ENE) 04:13:04 437.345
ITUPSAT 1 27 Jul 04:08:48 04:09:35 10° 271° (W) 04:10:22 437.325
Oscar 19 27 Jul 04:11:40 04:13:38 12° 301° (WNW) 04:15:35 437.125/150
MOZHAYETS 4 27 Jul 04:24:17 04:28:46 50° 261° (W) 04:33:17
STARS 27 Jul 04:30:49 04:35:12 86° 259° (W) 04:39:38 437.465
ISS 27 Jul 04:32:34 04:35:47 57° 221° (SW) 04:38:59 145.825
GONETS M04 27 Jul 04:40:38 04:47:20 25° 279° (W) 04:54:03
HORYU 2 27 Jul 05:07:52 05:11:25 23° 95° (E) 05:14:57 437.375
PCSat 27 Jul 05:12:05 05:17:31 74° 244° (WSW) 05:22:54 145.827
CUSAT 1 27 Jul 05:21:42 05:22:42 11° 285° (WNW) 05:23:39 437.405
O/OREOS (USA 219) 27 Jul 05:21:56 05:23:33 12° 52° (NE) 05:25:10 437.305
Cosmos 2499 27 Jul 05:31:59 05:34:40 12° 285° (WNW) 05:37:18 435.465 / 435.565
BRITE-PL 27 Jul 05:33:13 05:35:33 13° 91° (E) 05:37:56 437.365/2234.400
DANDE 27 Jul 05:38:52 05:43:39 28° 282° (WNW) 05:47:26 436.750
CUBESAT XI-V 27 Jul 05:43:04 05:47:38 61° 260° (W) 05:52:12 437.345
ITAMSAT 1 27 Jul 05:46:01 05:47:29 11° 302° (WNW) 05:48:57 435.822/435.867
AO-7 27 Jul 05:47:48 05:55:44 50° 296° (WNW) 06:03:37 29.400- 29.500
NOAA 15 27 Jul 06:02:28 06:06:16 20° 93° (E) 06:10:03 137.62
AIST 2 27 Jul 06:06:09 06:10:18 61° 56° (ENE) 06:14:25 435.215
NOAA 18 27 Jul 06:16:34 06:20:37 20° 93° (E) 06:24:38 137.9125
RS-15 27 Jul 06:30:41 06:41:28 52° 110° (ESE) 06:52:49 29.354- 29.394
DOVE 4 27 Jul 06:30:59 06:32:22 11° 88° (E) 06:33:45 437.250
GOMX 1 27 Jul 06:34:42 06:39:00 27° 95° (E) 06:43:28 467.674
HORYU 2 27 Jul 06:44:01 06:48:00 32° 291° (WNW) 06:51:56 437.375
LilacSat-2 27 Jul 06:50:10 06:53:50 40° 98° (E) 06:57:28 437.200
Cubesat XI-IV 27 Jul 06:56:57 07:02:09 49° 100° (E) 07:07:17 437.490
O/OREOS (USA 219) 27 Jul 06:59:00 07:03:33 80° 249° (WSW) 07:08:06 437.305
STRAND 1 27 Jul 07:09:01 07:14:06 65° 73° (ENE) 07:19:13 437.568
BRITE-PL 27 Jul 07:09:31 07:14:19 68° 285° (WNW) 07:19:30 437.365/2234.400
SO-50 27 Jul 07:09:59 07:12:44 15° 108° (ESE) 07:15:31 436.795
CUTE-I 27 Jul 07:20:33 07:25:56 82° 104° (ESE) 07:31:15 437.470
HO-68 27 Jul 07:29:40 07:33:33 15° 89° (E) 07:37:24 435.675
NOAA 15 27 Jul 07:41:13 07:46:17 49° 289° (WNW) 07:51:20 137.62
AO-7 27 Jul 07:44:38 07:46:30 11° 317° (NW) 07:48:22 29.400- 29.500
AIST 2 27 Jul 07:46:40 07:48:16 12° 252° (WSW) 07:49:51 435.215
NOAA 18 27 Jul 07:56:10 08:01:33 52° 290° (WNW) 08:06:53 137.9125
CANX-2 27 Jul 08:00:50 08:03:57 20° 93° (E) 08:07:04 2200.000
DOVE 4 27 Jul 08:05:23 08:10:34 86° 282° (WNW) 08:15:52 437.250
Cosmos 2491 27 Jul 08:11:11 08:19:12 38° 72° (ENE) 08:27:10 435.465 / 435.565
GOMX 1 27 Jul 08:12:28 08:17:04 37° 289° (WNW) 08:21:55 467.674
CUTE 1.7 + AOD 2 27 Jul 08:14:00 08:17:28 24° 95° (E) 08:20:54 437.475
CINEMA 3 27 Jul 08:17:45 08:22:28 39° 97° (E) 08:27:06 145.822/145.860
LilacSat-2 27 Jul 08:25:43 08:27:46 14° 294° (WNW) 08:29:49 437.200
Cubesat XI-IV 27 Jul 08:37:51 08:41:51 22° 296° (WNW) 08:45:49 437.490
PRISM 27 Jul 08:39:20 08:43:23 73° 75° (ENE) 08:47:27 437.425
RS-15 27 Jul 08:42:49 08:53:58 51° 314° (NW) 09:05:46 29.354- 29.394
SO-50 27 Jul 08:47:52 08:52:43 65° 304° (NW) 08:57:33 436.795
STRAND 1 27 Jul 08:50:58 08:53:42 14° 269° (W) 08:56:26 437.568
SEEDS 27 Jul 08:52:47 08:56:49 47° 99° (E) 09:00:50 437.485
CUTE-I 27 Jul 09:02:44 09:05:14 14° 301° (WNW) 09:07:45 437.470
UWE-3 27 Jul 09:03:37 09:07:12 22° 93° (E) 09:10:43 435.000/436.395/437.385
FUNcube-1 27 Jul 09:04:28 09:06:32 13° 90° (E) 09:08:35 145.935
COMPASS 1 27 Jul 09:04:37 09:08:35 44° 99° (E) 09:12:32 437.405
ZACube-1 27 Jul 09:05:06 09:07:32 14° 91° (E) 09:09:56 437.345
HO-68 27 Jul 09:14:52 09:22:07 90° 265° (W) 09:29:19 435.675
CUBEBUG 2 27 Jul 09:25:00 09:29:39 57° 100° (E) 09:34:10 437.445
Cosmos 2504 27 Jul 09:29:24 09:34:04 16° 76° (ENE) 09:38:44 435.465 / 435.565
TIGRISAT 27 Jul 09:30:20 09:33:50 22° 66° (ENE) 09:37:22 435.000
AAUSAT CUBESAT 2 27 Jul 09:32:49 09:36:57 78° 104° (ESE) 09:41:02 437.432
CANX-2 27 Jul 09:36:06 09:39:52 32° 289° (WNW) 09:43:35 2200.000
YUBILEINY 27 Jul 09:38:15 09:46:43 56° 90° (E) 09:55:16 435.215
Oscar 11 27 Jul 09:45:16 09:49:21 40° 98° (E) 09:53:23 145.826/435.025
UNISAT 6 27 Jul 09:45:58 09:50:05 32° 69° (ENE) 09:54:16 437.425
DOVE 4 27 Jul 09:46:00 09:47:29 11° 299° (WNW) 09:49:00 437.250
CUTE 1.7 + AOD 2 27 Jul 09:49:43 09:53:15 26° 291° (WNW) 09:56:45 437.475
AUBIESAT-1 27 Jul 09:54:29 09:55:54 11° 94° (E) 09:57:19 437.475
CINEMA 3 27 Jul 09:55:20 09:59:20 24° 293° (WNW) 10:03:19 145.822/145.860
DELFI C3 27 Jul 09:55:59 09:59:00 21° 94° (E) 10:02:01 145.870
Cosmos 2491 27 Jul 10:07:55 10:16:07 47° 272° (W) 10:24:20 435.465 / 435.565
HUMSAT D 27 Jul 10:18:43 10:21:41 19° 93° (E) 10:24:38 437.325/437.525
ANTELSAT 27 Jul 10:23:50 10:28:27 81° 78° (ENE) 10:33:11 437.575/2403.000
SEEDS 27 Jul 10:29:53 10:32:06 14° 295° (WNW) 10:34:19 437.485
SO-50 27 Jul 10:32:25 10:34:08 12° 324° (NW) 10:35:50 436.795
FUNcube-1 27 Jul 10:38:45 10:43:08 55° 286° (WNW) 10:47:24 145.935
UWE-3 27 Jul 10:39:33 10:43:43 34° 290° (WNW) 10:47:46 435.000/436.395/437.385
ZACube-1 27 Jul 10:39:45 10:44:07 50° 287° (WNW) 10:48:22 437.345
COMPASS 1 27 Jul 10:41:27 10:43:46 15° 294° (WNW) 10:46:04 437.405
NANOSAT C BR1 27 Jul 10:56:02 10:59:32 26° 69° (ENE) 11:03:03 145.865
M-CUBED/EXP-1 PRIME 27 Jul 11:00:02 11:04:44 71° 107° (ESE) 11:09:25 437.505
DUCHIFAT 1 27 Jul 11:00:13 11:03:45 27° 69° (ENE) 11:07:20 145.980
RS-15 27 Jul 11:01:33 11:10:25 23° 345° (NNW) 11:19:33 29.354- 29.394
CUBEBUG 2 27 Jul 11:03:01 11:05:45 15° 296° (WNW) 11:08:26 437.445
HO-68 27 Jul 11:04:22 11:08:52 18° 305° (NW) 11:13:21 435.675
TIGRISAT 27 Jul 11:05:57 11:10:14 38° 263° (W) 11:14:38 435.000
BUGSAT 1 27 Jul 11:15:18 11:17:59 17° 66° (ENE) 11:20:41 437.445
Cosmos 2504 27 Jul 11:17:11 11:26:01 81° 95° (E) 11:34:54 435.465 / 435.565
QB50P1 27 Jul 11:17:51 11:21:55 47° 73° (ENE) 11:26:01 145.935-145.965
Oscar 11 27 Jul 11:22:16 11:25:09 18° 294° (WNW) 11:28:02 145.826/435.025
UNISAT 6 27 Jul 11:23:02 11:26:48 24° 266° (W) 11:30:38 437.425
POPSAT HIP 1 27 Jul 11:24:13 11:28:21 55° 74° (ENE) 11:32:33 437.405
AUBIESAT-1 27 Jul 11:26:07 11:30:46 75° 290° (WNW) 11:35:23 437.475
DELFI C3 27 Jul 11:30:30 11:33:50 26° 290° (WNW) 11:37:08 145.870
YUBILEINY 27 Jul 11:36:21 11:43:54 32° 290° (WNW) 11:51:35 435.215
QB50P2 27 Jul 11:45:06 11:49:20 78° 256° (WSW) 11:53:38 145.880/145.840
JAS-2 27 Jul 11:46:02 11:51:24 35° 69° (ENE) 11:56:18 435.910
POLYITAN 1 27 Jul 11:47:43 11:51:58 76° 258° (WSW) 11:56:17 437.675
HUMSAT D 27 Jul 11:53:37 11:57:24 33° 289° (WNW) 12:01:07 437.325/437.525
AISAT 27 Jul 11:57:09 12:00:46 24° 95° (E) 12:04:22 437.250
DX 1 27 Jul 11:57:09 11:59:50 16° 93° (E) 12:02:30 434.975-435.025
Oscar 19 27 Jul 12:09:43 12:12:27 15° 61° (ENE) 12:15:13 437.125/150
UKube-1 27 Jul 12:10:23 12:13:15 17° 93° (E) 12:16:08 .
NANOSAT C BR1 27 Jul 12:31:39 12:35:11 26° 264° (W) 12:38:45 145.865
ESTCUBE 1 27 Jul 12:32:05 12:36:35 84° 282° (WNW) 12:41:03 437.505/2401.250
DUCHIFAT 1 27 Jul 12:35:55 12:39:23 25° 265° (W) 12:42:54 145.980
M-CUBED/EXP-1 PRIME 27 Jul 12:36:10 12:38:40 14° 302° (WNW) 12:41:09 437.505
SPROUT 27 Jul 12:42:35 12:46:29 33° 97° (E) 12:50:23 437.525
AO-85 27 Jul 12:44:19 12:47:27 16° 108° (ESE) 12:50:33 145.980
VELOX 1 27 Jul 12:48:00 12:52:28 83° 101° (E) 12:56:55 145.980
CUBEBUG 1 27 Jul 12:48:47 12:53:12 82° 283° (WNW) 12:57:37 437.445
BUGSAT 1 27 Jul 12:49:15 12:53:03 38° 262° (W) 12:56:55 437.445
50 SAT 27 Jul 12:49:50 12:53:27 76° 281° (W) 12:57:01 437.505
QB50P1 27 Jul 12:55:44 12:57:57 14° 269° (W) 13:00:10 145.935-145.965
POPSAT HIP 1 27 Jul 13:02:52 13:04:29 12° 269° (W) 13:06:06 437.405
AO-7 27 Jul 13:09:07 13:10:29 10° 42° (NE) 13:11:51 29.400- 29.500
Cosmos 2504 27 Jul 13:13:47 13:20:22 23° 295° (WNW) 13:26:58 435.465 / 435.565
AIST 1 27 Jul 13:14:08 13:18:06 40° 92° (E) 13:22:06
RS-15 27 Jul 13:19:19 13:28:58 25° 22° (NNE) 13:38:39 29.354- 29.394
Gurwin Techsat 1B 27 Jul 13:29:00 13:33:49 36° 69° (ENE) 13:38:40 435.225
JAS-2 27 Jul 13:31:08 13:36:28 31° 262° (W) 13:41:22 435.910
DX 1 27 Jul 13:32:03 13:36:13 44° 288° (WNW) 13:40:23 434.975-435.025
AISAT 27 Jul 13:33:20 13:37:14 31° 291° (WNW) 13:41:09 437.250
TISAT 1 27 Jul 13:37:21 13:41:08 30° 97° (E) 13:44:54 437.305
ITAMSAT 1 27 Jul 13:43:49 13:47:09 17° 62° (ENE) 13:50:29 435.822/435.867
UKube-1 27 Jul 13:45:24 13:49:27 39° 289° (WNW) 13:53:29 .
Oscar 19 27 Jul 13:46:05 13:51:10 70° 258° (WSW) 13:56:18 437.125/150
GONETS M04 27 Jul 13:51:50 13:55:42 14° 75° (ENE) 13:59:34
BEESAT 27 Jul 14:06:38 14:08:26 12° 90° (E) 14:10:13 436.000
CUSAT 1 27 Jul 14:09:40 14:11:43 16° 77° (ENE) 14:14:02 437.405
SPROUT 27 Jul 14:18:58 14:22:13 21° 293° (WNW) 14:25:28 437.525
Cosmos 2499 27 Jul 14:20:28 14:25:31 17° 78° (ENE) 14:30:30 435.465 / 435.565
AO-85 27 Jul 14:22:04 14:27:27 72° 304° (NW) 14:32:37 145.980
ITUPSAT 1 27 Jul 14:28:26 14:31:59 21° 94° (E) 14:35:31 437.325
AO-7 27 Jul 14:53:18 15:01:12 48° 63° (ENE) 15:09:07 29.400- 29.500
AIST 1 27 Jul 14:53:23 14:55:55 15° 289° (WNW) 14:58:26
Gurwin Techsat 1B 27 Jul 15:09:20 15:13:48 27° 265° (W) 15:18:19 435.225
TISAT 1 27 Jul 15:13:19 15:16:36 22° 293° (WNW) 15:19:53 437.305
SWISSCUBE 27 Jul 15:20:31 15:25:19 82° 103° (ESE) 15:30:03 437.505
ITAMSAT 1 27 Jul 15:20:57 15:26:06 61° 259° (WSW) 15:31:18 435.822/435.867
RS-15 27 Jul 15:32:28 15:44:45 62° 51° (NE) 15:56:49 29.354- 29.394
SO-50 27 Jul 15:41:04 15:43:37 14° 39° (NE) 15:46:07 436.795
BEESAT 27 Jul 15:41:55 15:46:40 67° 286° (WNW) 15:51:22 436.000
GONETS M04 27 Jul 15:42:19 15:50:58 79° 95° (E) 15:59:42
KKS-1 27 Jul 15:44:33 15:47:00 14° 92° (E) 15:49:27 437.445
CUSAT 1 27 Jul 15:51:19 15:53:35 18° 264° (W) 15:56:12 437.405
PHONESAT 2.4 27 Jul 15:58:43 15:59:44 11° 146° (SSE) 16:00:45 2401.200-2431.200
ITUPSAT 1 27 Jul 16:05:30 16:09:57 40° 290° (WNW) 16:14:22 437.325
HORYU 2 27 Jul 16:05:31 16:08:51 21° 66° (ENE) 16:12:11 437.375
AO-85 27 Jul 16:06:08 16:08:45 14° 321° (NW) 16:11:19 145.980
